This demonstration page uses our WeatherBlox Daily Observations layout. Learn more.

Left ArrowRight Arrow

39.92423, -83.80882

Hourly Observations for August 10, 2022

Temp ( °F °C ) Dew Point ( °F °C ) Humidity (%) Winds ( mph kmh ) Pressure ( in mb ) Visibility ( mi km ) Precip ( " mm )
12:04 am 00:04 Cloudy 70 21 N/A N/A E 5 7 30.09 1019 10 16 0.00 0.00
1:03 am 01:03 Cloudy 70 21 N/A N/A ENE 5 7 30.08 1019 10 16 0.00 0.00
1:56 am 01:56 Partly Cloudy N/A N/A N/A ENE 5 7 30.14 1021 10 16 0.00 0.00
2:44 am 02:44 Mostly Cloudy N/A N/A N/A Calm 30.15 1021 10 16 0.00 0.00
2:56 am 02:56 Cloudy N/A N/A N/A Calm 30.15 1021 10 16 0.00 0.00
3:56 am 03:56 Cloudy N/A N/A N/A Calm 30.16 1021 10 16 0.00 0.00
4:56 am 04:56 Cloudy 70 21.1 N/A N/A Calm 30.09 1019 10 16 0.00 0.00
5:06 am 05:06 Cloudy 70 21 N/A N/A Calm 30.09 1019 10 16 0.00 0.00
5:56 am 05:56 Cloudy N/A N/A N/A Calm 30.16 1021 10 16 0.00 0.00
6:56 am 06:56 Cloudy N/A N/A N/A ENE 5 7 30.18 1022 10 16 0.00 0.00
7:56 am 07:56 Cloudy N/A N/A N/A NE 5 7 30.19 1022 10 16 0.00 0.00
8:08 am 08:08 Cloudy N/A N/A N/A ENE 3 6 30.19 1022 10 16 0.00 0.00
8:56 am 08:56 Cloudy 71 21.7 N/A N/A NE 3 6 30.13 1020 10 16 0.00 0.00
9:56 am 09:56 Cloudy 72 22.2 N/A N/A NNE 3 6 30.13 1020 8 13 0.00 0.00
10:56 am 10:56 Cloudy with Haze 71 21.7 N/A N/A NNE 3 6 30.14 1021 4 6 0.00 0.00
11:05 am 11:05 Cloudy with Light Rain 72 22 N/A N/A NNE 3 6 30.12 1020 3 4 0.01 0.13
11:18 am 11:18 Cloudy with Light Rain N/A N/A N/A NE 5 7 30.21 1023 2 2 0.01 0.13
11:31 am 11:31 Cloudy with Light Rain N/A N/A N/A NNE 6 9 30.21 1023 3 5 0.01 0.13
11:49 am 11:49 Cloudy with Mist and Fog N/A N/A N/A N 5 7 30.23 1024 3 5 0.01 0.13
11:56 am 11:56 Cloudy with Haze N/A N/A N/A NNE 5 7 30.23 1024 4 6 0.01 0.13
12:56 pm 12:56 Cloudy N/A N/A N/A N 5 7 30.21 1023 10 16 0.01 0.13
1:26 pm 13:26 Cloudy N/A N/A N/A NNE 7 11 30.20 1023 4 6 0.01 0.13
1:41 pm 13:41 Cloudy N/A N/A N/A N 7 11 30.20 1023 3 4 0.01 0.13
1:48 pm 13:48 Cloudy N/A N/A N/A N 5 7 30.20 1023 2 3 0.01 0.13
1:56 pm 13:56 Cloudy N/A N/A N/A NNE 5 7 30.19 1022 1 2 0.01 0.13
2:05 pm 14:05 Cloudy N/A N/A N/A NE 7 11 30.19 1022 1 2 0.01 0.25
2:31 pm 14:31 Cloudy N/A N/A N/A NNE 7 11 30.19 1022 3 4 0.01 0.25
2:41 pm 14:41 Cloudy with Light Rain N/A N/A N/A NNE 6 9 30.18 1022 3 5 0.01 0.25
2:56 pm 14:56 Cloudy with Haze N/A N/A N/A NE 3 6 30.18 1022 4 6 0.01 0.25
3:09 pm 15:09 Cloudy with Haze 72 22 N/A N/A N 7 11 30.09 1019 5 8 0.00 0.00
3:56 pm 15:56 Cloudy 74 23.3 N/A N/A N 6 9 30.07 1018 10 16 0.00 0.00
4:17 pm 16:17 Cloudy 73 23 N/A N/A N 7 11 30.07 1018 10 16 0.00 0.00
4:37 pm 16:37 Cloudy 75 24 75 24 100 100 N 8 13 30.06 1018 10 16 0.00 0.00
4:56 pm 16:56 Mostly Cloudy 75 23.9 75 23.9 100 100 N 8 13 30.08 1019 10 16 0.00 0.00
5:06 pm 17:06 Partly Cloudy 75 24 73 23 94 94 N 8 13 30.06 1018 10 16 0.00 0.00
5:56 pm 17:56 Mostly Cloudy 77 25 71 21.7 82 82 Calm 30.05 1018 10 16 0.00 0.00
6:56 pm 18:56 Mostly Cloudy 76 24.4 70 21.1 82 82 NNW 5 7 30.06 1018 10 16 0.00 0.00
7:56 pm 19:56 Sunny 72 22.2 72 22.2 100 100 Calm 30.06 1018 10 16 0.00 0.00
8:33 pm 20:33 Mostly Cloudy 72 22 N/A N/A Calm 30.06 1018 10 16 0.00 0.00
8:54 pm 20:54 Cloudy 72 22 N/A N/A Calm 30.06 1018 10 16 0.00 0.00
8:56 pm 20:56 Mostly Cloudy 72 22.2 N/A N/A Calm 30.09 1019 10 16 0.00 0.00
9:56 pm 21:56 Clear N/A N/A N/A NNW 3 6 30.18 1022 10 16 0.00 0.00
10:56 pm 22:56 Clear N/A N/A N/A NNW 3 6 30.18 1022 10 16 0.00 0.00
11:56 pm 23:56 Clear N/A N/A N/A NW 5 7 30.16 1021 10 16 0.00 0.00

Powered by AerisWeather